Regional Weather Roundup
Issued by NWS State College, PA

Home | Current Version | Previous Version | Graphics & Text | Print | Product List | Glossary Off
Versions: 1 2 3 4 5 6 7 8 9 10 11 12 13 14 15 16 17 18 19 20 21 22 23 24 25 26 27 28 29 30 31 32 33 34 35 36 37 38 39 40 41 42 43 44 45 46 47 48 49 50

000
ASUS41 KCTP 292110
RWRCTP

REGIONAL WEATHER ROUNDUP
NATIONAL WEATHER SERVICE STATE COLLEGE PA
500 PM EDT FRI MAY 29 2015

Note: "fair" indicates few or no clouds below 12,000 feet with no
significant weather and/or obstructions to visibility.

* = STATION THAT DOES NOT REPORT PRECIPITATION /E.G. RAIN...SNOW...ETC/
    THUNDER OR FOG.

PAZ002>004-007>009-013>016-020>023-029>032-292200-
WESTERN PENNSYLVANIA

CITY           SKY/WX    TMP DP  RH WIND       PRES   REMARKS
ERIE           PTSUNNY   84  62  47 S8        30.09F
MEADVILLE      PTSUNNY   80  63  55 VRB5      30.13F
FRANKLIN*      PTSUNNY   79  63  57 S7        30.16F
NEW CASTLE     MOCLDY    86  66  50 S8G16     30.12F
BEAVER COUNTY  MOSUNNY   84  63  48 SW9       30.13F
BUTLER*        PTSUNNY   81  63  54 SE9       30.15F
PITTSBURGH INT PTSUNNY   85  63  47 S7        30.13F
PITTSBURGH     PTSUNNY   78  61  55 VRB3      30.13F
INDIANA*       MOSUNNY   84  64  51 S9        30.19F
LATROBE        PTSUNNY   79  66  65 S12G21    30.17F
WASHINGTON CO* CLOUDY    73  68  83 W5        30.18S
$$

PAZ004>006-010>012-017>019-024>028-033>037-041-042-045-046-049>053-292200-
CENTRAL PENNSYLVANIA

CITY           SKY/WX    TMP DP  RH WIND       PRES   REMARKS
BRADFORD       PTSUNNY   79  57  46 VRB6      30.20F
DUBOIS         PTSUNNY   82  59  45 S6        30.17F
CLEARFIELD     PTSUNNY   81  60  48 VRB6      30.19F
JOHNSTOWN      MOSUNNY   78  61  55 SE10      30.22F
ALTOONA        MOSUNNY   81  60  48 S12       30.21F
STATE COLLEGE  MOSUNNY   81  61  50 MISG      30.19F
WILLIAMSPORT   MOSUNNY   85  59  41 VRB5      30.16F
SELINSGROVE    MOSUNNY   86  61  42 SE12      30.19F
FT INDIANTOWN  SUNNY     84  64  51 VRB7      30.20F
CAPITAL CITY   MOSUNNY   84  64  50 S5        30.19F
HARRISBURG     PTSUNNY   85  66  53 SE6       30.18F
YORK           MOSUNNY   82  66  58 S8        30.19F
$$

PAZ038>040-043-044-047-048-054-055-060>062-067>071-292200-
EASTERN PENNSYLVANIA

CITY           SKY/WX    TMP DP  RH WIND       PRES   REMARKS
SCRANTON       PTSUNNY   84  53  34 SW7       30.21F
MOUNT POCONO   PTSUNNY   78  50  37 S8        30.30F
ALLENTOWN      PTSUNNY   87  57  35 SW7       30.20F
QUAKERTOWN*    PTCLDY    86  59  39 S7        30.22F
READING        MOSUNNY   86  60  41 S8        30.18F
LANCASTER      SUNNY     85  62  46 SE8       30.19F
COATESVILLE    CLEAR     82  66  57 CALM      30.23F
POTTSTOWN      MOSUNNY   85  61  44 S7        30.22F
BLUE BELL      SUNNY     86  63  45 SE3       30.20F
DOYLESTOWN     MOSUNNY   83  56  39 VRB6      30.20F
WILLOW GROVE   NOT AVBL
NORTH PHILA    SUNNY     88  57  34 S7        30.21F
PHILADELPHIA   MOSUNNY   86  62  44 MISG      30.20F
$$


USA.gov is the U.S. government's official web portal to all federal, state and local government web resources and services.